Regional Weather Roundup
Issued by NWS

Home | Current Version | Previous Version | Text Only | Print | Product List | Glossary On
Versions: 1 2 3 4 5 6 7 8 9 10 11 12 13 14 15 16 17 18 19 20 21 22 23 24 25 26 27 28
000
ASUS46 KSEW 292210
RWRWA

WASHINGTON REGIONAL WEATHER ROUNDUP
NATIONAL WEATHER SERVICE SEATTLE WA
300 PM PDT FRI APR 29 2016

NOTE:"FAIR" INDICATES FEW OR NO CLOUDS BELOW 12,000 FEET WITH NO
SIGNIFICANT WEATHER AND/OR OBSTRUCTIONS TO VISIBILITY.

WAZ505-507>509-292300-
SEATTLE, TACOMA, EVERETT, AND VICINITY

CITY           SKY/WX    TMP DP  RH WIND       PRES   REMARKS
EVERETT        CLOUDY    55  42  61 N6        30.14R
BOEING FIELD   CLOUDY    57  46  66 SE7       30.14S
RENTON         PTSUNNY   58  46  64 NW5       30.14S
SEATAC AIRPORT PTSUNNY   56  45  66 SE5       30.15S
JBLM-MCCHORD   CLOUDY    55  46  71 W3        30.14S
PUYALLUP       PTSUNNY   57  46  67 CALM      30.15S
BREMERTON      CLOUDY    57  46  67 S6        30.15S
JBLM-FT LEWIS  CLOUDY    57  46  66 N3        30.13F
TACOMA NARROWS PTSUNNY   55  42  61 VRB3      30.14S
$$

WAZ001-503-506-510-514-515-292300-
NORTH INTERIOR

CITY           SKY/WX    TMP DP  RH WIND       PRES   REMARKS
BELLINGHAM     MOSUNNY   60  40  47 SW9       30.11S
FRIDAY HARBOR  SUNNY     60  44  55 SW10      30.13R
EASTSOUND      SUNNY     57  45  62 N7        30.11R
PORT ANGELES   LGT RAIN  56  46  69 NW18G25   30.13R
EDIZ HOOK      FAIR      56  47  71 W18       30.13S
PORT TOWNSEND  FAIR      59  46  63 NW9G15    30.14R
NAS WHIDBEY    PTSUNNY   57  48  72 W8        30.17R
ARLINGTON      CLOUDY    55  45  67 E8        30.15R
BURLINGTON     CLOUDY    59  45  58 CALM      30.13R
$$

WAZ020-022-039-040-504-511-512-292300-
SOUTHWEST INTERIOR

CITY           SKY/WX    TMP DP  RH WIND       PRES   REMARKS
SHELTON        PTSUNNY   60  43  53 VRB5      30.11S
OLYMPIA        PTSUNNY   58  42  55 E8        30.13F
CHEHALIS       FAIR      63  45  51 VRB6G14   30.13S
KELSO          PTSUNNY   55  48  76 CALM      30.17S
VANCOUVER      PTSUNNY   57  50  77 CALM      30.15R
SCAPPOOSE, OR  CLOUDY    57  50  77 SE7       30.13F
PORTLAND, OR   LGT RAIN  58  49  72 CALM      30.15S
$$

WAZ021-516-517-292300-
WASHINGTON COAST

CITY           SKY/WX    TMP DP  RH WIND       PRES   REMARKS
FORKS          CLOUDY    55  46  71 NW9       30.18R
HOQUIAM          N/A    N/A N/A N/A MISG      30.15R
ASTORIA, OR    MOSUNNY   60  49  66 NW15G22   30.17R
$$

WAZ019-023-024-040-518-519-292300-
CASCADE MOUNTAINS AND COLUMBIA GORGE

CITY           SKY/WX    TMP DP  RH WIND       PRES   REMARKS
STAMPEDE PASS  CLOUDY    38  35  89 VRB5      30.05S
TROUTDALE, OR  PTSUNNY   56  48  74 CALM      30.15S
THE DALLES, OR PTSUNNY   67  37  33 W17G31    30.03S
$$

WAZ026-027-041>044-520-521-292300-
EAST SLOPES

CITY           SKY/WX    TMP DP  RH WIND       PRES   REMARKS
OMAK           CLOUDY    63  40  42 NW7       29.90F
WENATCHEE      CLOUDY    67  31  26 NW21G29   29.92S
ELLENSBURG     MOSUNNY   60  37  42 NW29G37   29.96S
YAKIMA         PTSUNNY   66  35  31 NW18G25   29.97S
$$

WAZ028-034-035-292300-
COLUMBIA BASIN

CITY           SKY/WX    TMP DP  RH WIND       PRES   REMARKS
EPHRATA        LGT RAIN  52  47  83 CALM      29.95S
MOSES LAKE     LGT RAIN  51  46  83 NW15      29.97R
PASCO          CLOUDY    63  45  51 W15       29.97S
HERMISTON, OR  CLOUDY    59  40  49 W9G18     29.98R
$$

WAZ036>038-292300-
NORTHEAST WASHINGTON

CITY           SKY/WX    TMP DP  RH WIND       PRES   REMARKS
SPOKANE GEIGER LGT RAIN  49  43  80 CALM      29.95S
SPOKANE FELTS  CLOUDY    53  40  61 SW5       29.96S
FAIRCHILD AFB  LGT RAIN  48  45  87 CALM      29.95S
COEURDALENE,ID CLOUDY    54  37  54 SW5       29.92F
DEER PARK      CLOUDY    49  44  83 CALM      29.96S
$$

WAZ029>033-292300-
SOUTHEAST WASHINGTON

CITY           SKY/WX    TMP DP  RH WIND       PRES   REMARKS
PULLMAN        LGT RAIN  48  44  86 W9        29.97R
LEWISTON, ID   LGT RAIN  51  46  83 VRB6      29.96S
WALLA WALLA    LGT RAIN  52  46  80 S10       29.98R
PENDLETON, OR  LGT RAIN  56  37  49 W18       29.98R
$$




USA.gov is the U.S. government's official web portal to all federal, state and local government web resources and services.